Simultaneous Nadir Overpasses (SNOs) Predictions

Prediction of SNOs between METOP-A and TERRA Satellite Orbit:

Table of predicted SNOs for the next 14.0 days since TLE Epoch: 2/10/2013
Index Date (METOP-A) Time (METOP-A) Lat,Lon (METOP-A) SZA (METOP-A ) Date (TERRA) Time (TERRA) Lat,Lon (TERRA) SZA (TERRA ) Distance(km) Time Diff (sec)
1 02/11/2013 22:07:17 -81.35, 76.25 82.54 02/11/2013 22:07:38 -81.35, 76.23 82.53 0.34 21
2 02/11/2013 22:57:57 81.36,-116.18 97.49 02/11/2013 22:57:04 81.36,-116.02 97.48 2.72 53
3 02/14/2013 17:41:37 -81.36, 142.77 83.47 02/14/2013 17:41:51 -81.35, 142.69 83.47 1.33 14
4 02/14/2013 18:32:17 81.36, -49.70 96.55 02/14/2013 18:31:17 81.36, -49.58 96.54 2.11 60
5 02/17/2013 13:15:57 -81.35,-151.11 84.47 02/17/2013 13:16:03 -81.35,-150.93 84.45 3.07 6
6 02/
